Hourly Data Report for December 05, 2004

SHERBROOKE A
QUEBEC

45°26'00.000" N
71°41'00.000" W
241.40 m
7028124
71610
YSC

Download Data

Hourly Data (December 2004)
Hourly Data Report for December 5, 2004
TIME
LST
Temp Definition
°C
Dew Point Definition
°C
Rel Hum Definition
%
Precip. Amount Definition
mm

Wind Dir Definition
10's deg

Wind Spd Definition
km/h
Visibility Definition
km
Stn Press Definition
kPa
Hmdx Definition


Wind Chill Definition


Weather Definition


00:00 -0.5 -4.2 76   21 15 15.0 97.48   -5 Snow
01:00 -0.3 -2.8 83   22 13 9.7 97.48   -4 Snow
02:00 -0.2 -1.7 90   23 13 4.8 97.53   -4 Snow
03:00 -0.2 -1.1 94   22 15 2.6 97.55   -5 Snow
04:00 0.5 -0.6 92   22 11 15.0 97.58      
05:00 0.6 -0.3 94   25 15 6.4 97.64      
06:00 1.4 0.4 93   28 22 8.0 97.78     Moderate Rain
07:00 0.9 -2.6 77   29 37 15.0 97.89     Snow
08:00 -0.8 -4.4 77   30 28 19.3 98.06   -7 Snow
09:00 -3.2 -7.7 71   32 22 19.3 98.32   -10 Mostly Cloudy
10:00 -5.4 -13.1 55   31 30 19.3 98.55   -14 Mostly Cloudy
11:00 -6.9 -16.6 46   28 39 24.1 98.68   -17 Mostly Cloudy
12:00 -7.1 -16.8 46   30 30 24.1 98.79   -16 Mainly Clear
13:00 -7.8 -17.0 48   29 30 24.1 98.90   -17 Mainly Clear
14:00 -8.9 -19.1 43   28 28 24.1 99.04   -18 Mainly Clear
15:00 -9.7 -20.7 40   30 20 24.1 99.20   -17 Mainly Clear
16:00 -10.8 -20.7 44   29 20 24.1 99.32   -19 Mainly Clear
17:00 -12.6 -20.3 53   28 7 24.1 99.42   -17 Mainly Clear
18:00 -13.7 -20.0 59   24 7 15.0 99.53   -18  
19:00 -15.4 -20.5 65   25 6 15.0 99.58   -20  
20:00 -17.9 -21.2 75   24 4 15.0 99.60   -21  
21:00 -17.1 -20.5 75     0 15.0 99.71      
22:00 -17.4 -20.3 78   22 4 15.0 99.78   -21  
23:00 -20.5 -23.3 78   12 6 15.0 99.76   -26  

Notes on Data Quality.

Legend

  • E = Estimated
  • M = Missing
  • NA = Not Available*
  • [empty] = Indicates an unobserved value
Date modified: